Home   Weather   Manizales   Past weeks

Flag for Colombia Past Weather in Manizales, Colombia — Yesterday and Last 2 Weeks

Now
68 °F

Passing clouds.


Feels Like: 68 °F
Forecast: 56 / 69 °F
Wind: 5 mph from Southeast

Location: Pereira / Matecana

Current Time: Dec 10, 2016 at 2:04:15 am

Latest Report: Dec 10, 2016 at 12:00 am


Visibility: N/A

Pressure: 30.09 "Hg (23.45 "Hg at 2139m altitude)

Humidity: 88%

Dew Point: 64 °F

Location of ManizalesLocation

Past Weather in Manizales — Graph

°F

Manizales Temperature Yesterday

Maximum temperature yesterday: 79 °F (at 2:00 pm)
Minimum temperature yesterday: 63 °F (at 5:00 am)
Average temperature yesterday: 70 °F

High & Low Weather Summary for the Past Weeks

 TemperatureHumidityPressure
High81 °F (Nov 26, 2:00 pm)100% (Nov 25, 5:00 am)30.15 "Hg (Nov 25, 5:00 am)
Low63 °F (Dec 6, 5:00 am)25% (Dec 3, 8:00 pm)29.91 "Hg (Nov 28, 4:00 pm)
Average70 °F85%30.05 "Hg
* Reported Nov 25 12:00 am — Dec 10 12:00 am, Manizales, Weather by CustomWeather, © 2016

Note: Actual official high and low records may vary slightly from our data, if they occured in-between our weather recording intervals... More about our weather records

Advertising

Manizales Weather History for the Previous 24 Hours

Scroll right to see more
 ConditionsComfort  
Time TempWeatherWind HumidityBarometerVisibility
12:00 am
Sat, Dec 10
68 °FPassing clouds.5 mph88%30.09 "HgN/A
11:00 pm
Fri, Dec 9
68 °FPassing clouds.6 mph88%30.09 "HgN/A
10:00 pm68 °FPassing clouds.2 mph83%30.09 "HgN/A
9:00 pm70 °FPassing clouds.2 mph78%30.07 "HgN/A
8:00 pm68 °FPassing clouds.2 mph88%30.06 "HgN/A
7:00 pm72 °FPassing clouds.2 mph78%30.01 "HgN/A
6:00 pm73 °FPassing clouds.5 mph69%29.99 "HgN/A
5:00 pm77 °FScattered showers. Passing clouds.3 mph57%29.97 "HgN/A
4:00 pm79 °FScattered showers. Passing clouds.5 mph51%29.96 "HgN/A
3:00 pm79 °FPassing clouds.8 mph58%29.97 "HgN/A
2:00 pm79 °FPassing clouds.6 mph65%30.01 "HgN/A
1:00 pm77 °FPartly sunny.7 mph74%30.06 "HgN/A
12:00 pm73 °FPartly sunny.5 mph74%30.10 "HgN/A
11:00 am72 °FBroken clouds.2 mph73%30.12 "HgN/A
10:00 am68 °FFog.5 mph83%30.15 "HgN/A
9:00 am66 °FFog.5 mph94%30.15 "Hg6 mi
8:00 am66 °FScattered clouds.2 mph94%30.13 "Hg2 mi
7:00 am63 °FBroken clouds.5 mph100%30.12 "Hg2 mi
6:00 am63 °FDrizzle. Fog.5 mph100%30.11 "Hg5 mi
5:00 am63 °FLight rain. Partly cloudy.6 mph100%30.10 "Hg4 mi
Weather by CustomWeather, © 2016

See weather overviewHow to use our weather pages